• In Netherlands
  • List of Countries
  • For 7 days
  • Water Temperature
  • Satellite Maps
  • Weather Map
  • Weather Widgets
  • user-avatar
    Login

    Hourly Weather Nashavar

    Today, 27 July, Thursday

    Time Temperature Precipitation Wind Pressure Humidity
    00:00 +37°C° 0.8 mm 2 mps 723 mmHg 50%
    01:00 +36°C° 0.8 mm 2 mps 723 mmHg 51%
    02:00 +36°C° 0.8 mm 2 mps 723 mmHg 53%
    03:00 +35°C° 0.8 mm 2 mps 723 mmHg 54%
    04:00 +35°C° 0.8 mm 2 mps 723 mmHg 56%
    05:00 +35°C° 0 mm 2 mps 723 mmHg 57%
    06:00 +35°C° 0.4 mm 2 mps 723 mmHg 55%
    07:00 +36°C° 0.4 mm 2 mps 724 mmHg 53%
    08:00 +35°C° 0.4 mm 1 mps 724 mmHg 52%
    09:00 +37°C° 0.2 mm 2 mps 724 mmHg 48%
    10:00 +38°C° 0.2 mm 2 mps 724 mmHg 45%
    11:00 +38°C° 0 mm 2 mps 724 mmHg 45%
    12:00 +39°C° 0 mm 2 mps 724 mmHg 42%
    13:00 +40°C° 0 mm 2 mps 723 mmHg 40%
    14:00 +41°C° 0 mm 2 mps 723 mmHg 37%
    15:00 +41°C° 0 mm 2 mps 723 mmHg 36%
    16:00 +42°C° 0 mm 2 mps 722 mmHg 34%
    17:00 +41°C° 0 mm 2 mps 723 mmHg 37%
    18:00 +40°C° 0.1 mm 2 mps 723 mmHg 38%
    19:00 +40°C° 0.1 mm 2 mps 723 mmHg 39%
    20:00 +39°C° 0.1 mm 3 mps 723 mmHg 41%
    21:00 +39°C° 0.3 mm 3 mps 723 mmHg 42%
    22:00 +39°C° 0.3 mm 3 mps 723 mmHg 43%
    23:00 +38°C° 0.3 mm 2 mps 724 mmHg 44%

    Tomorrow, 28 July, Friday

    Time Temperature Precipitation Wind Pressure Humidity
    00:00 +38°C° 0.2 mm 2 mps 723 mmHg 46%
    01:00 +37°C° 0.2 mm 2 mps 723 mmHg 48%
    02:00 +37°C° 0.2 mm 3 mps 723 mmHg 49%
    03:00 +37°C° 0.1 mm 2 mps 723 mmHg 51%
    04:00 +36°C° 0.1 mm 2 mps 723 mmHg 53%
    05:00 +36°C° 0.1 mm 2 mps 723 mmHg 54%
    06:00 +35°C° 0.1 mm 1 mps 723 mmHg 53%
    07:00 +36°C° 0.1 mm 1 mps 724 mmHg 51%
    08:00 +36°C° 0.1 mm 1 mps 724 mmHg 50%
    09:00 +37°C° 0.1 mm 1 mps 724 mmHg 46%
    10:00 +39°C° 0.1 mm 1 mps 724 mmHg 43%
    11:00 +40°C° 0.1 mm 2 mps 724 mmHg 39%
    12:00 +41°C° 0 mm 2 mps 724 mmHg 38%
    13:00 +42°C° 0 mm 2 mps 723 mmHg 36%
    14:00 +42°C° 0 mm 2 mps 723 mmHg 34%
    15:00 +43°C° 0 mm 3 mps 723 mmHg 33%
    16:00 +44°C° 0 mm 3 mps 723 mmHg 33%
    17:00 +44°C° 0 mm 3 mps 722 mmHg 32%
    18:00 +43°C° 0 mm 3 mps 722 mmHg 34%
    19:00 +42°C° 0 mm 3 mps 723 mmHg 36%
    20:00 +42°C° 0 mm 3 mps 723 mmHg 38%
    21:00 +40°C° 0.2 mm 3 mps 723 mmHg 40%
    22:00 +40°C° 0.2 mm 3 mps 724 mmHg 42%
    23:00 +39°C° 0.2 mm 3 mps 724 mmHg 44%

    Day after tomorrow, 29 July, Saturday

    Time Temperature Precipitation Wind Pressure Humidity
    00:00 +39°C° 0.3 mm 3 mps 724 mmHg 46%
    01:00 +38°C° 0.3 mm 3 mps 724 mmHg 48%
    02:00 +37°C° 0.3 mm 3 mps 723 mmHg 50%
    03:00 +37°C° 1 mm 3 mps 723 mmHg 52%
    04:00 +36°C° 1 mm 2 mps 724 mmHg 55%
    05:00 +36°C° 1 mm 2 mps 724 mmHg 58%
    06:00 +36°C° 1 mm 2 mps 724 mmHg 58%
    07:00 +36°C° 1 mm 2 mps 724 mmHg 57%
    08:00 +36°C° 1 mm 2 mps 724 mmHg 57%
    09:00 +37°C° 0.4 mm 2 mps 724 mmHg 54%
    10:00 +38°C° 0.4 mm 2 mps 724 mmHg 50%
    11:00 +39°C° 0.4 mm 2 mps 724 mmHg 46%
    12:00 +40°C° 0 mm 2 mps 724 mmHg 43%
    13:00 +41°C° 0 mm 2 mps 724 mmHg 41%
    14:00 +42°C° 0 mm 2 mps 723 mmHg 38%
    15:00 +43°C° 0 mm 3 mps 723 mmHg 37%
    16:00 +43°C° 0 mm 3 mps 723 mmHg 36%
    17:00 +43°C° 0 mm 4 mps 723 mmHg 36%
    18:00 +43°C° 0 mm 4 mps 723 mmHg 37%
    19:00 +42°C° 0 mm 4 mps 723 mmHg 39%
    20:00 +41°C° 0 mm 4 mps 723 mmHg 41%
    21:00 +41°C° 0.2 mm 4 mps 724 mmHg 43%
    22:00 +40°C° 0.2 mm 4 mps 724 mmHg 46%
    23:00 +38°C° 0.2 mm 4 mps 724 mmHg 49%

    30 July, Sunday

    Time Temperature Precipitation Wind Pressure Humidity
    00:00 +38°C° 0.6 mm 4 mps 724 mmHg 51%
    01:00 +37°C° 0.6 mm 3 mps 724 mmHg 54%
    02:00 +36°C° 0.6 mm 3 mps 723 mmHg 57%
    03:00 +36°C° 1 mm 2 mps 723 mmHg 60%
    04:00 +35°C° 1 mm 2 mps 723 mmHg 62%
    05:00 +35°C° 1 mm 2 mps 723 mmHg 65%
    06:00 +35°C° 0.7 mm 2 mps 723 mmHg 63%
    07:00 +36°C° 0.7 mm 2 mps 723 mmHg 61%
    08:00 +36°C° 0.7 mm 2 mps 723 mmHg 59%
    09:00 +37°C° 0.5 mm 2 mps 723 mmHg 55%
    10:00 +38°C° 0.5 mm 2 mps 723 mmHg 51%
    11:00 +39°C° 0.5 mm 2 mps 723 mmHg 47%
    12:00 +40°C° 0 mm 3 mps 723 mmHg 46%
    13:00 +40°C° 0 mm 3 mps 722 mmHg 44%
    14:00 +42°C° 0 mm 3 mps 722 mmHg 42%
    15:00 +42°C° 0 mm 3 mps 721 mmHg 41%
    16:00 +42°C° 0 mm 3 mps 721 mmHg 41%
    17:00 +43°C° 0 mm 3 mps 721 mmHg 40%
    18:00 +42°C° 0 mm 3 mps 721 mmHg 42%
    19:00 +41°C° 0 mm 4 mps 721 mmHg 43%
    20:00 +41°C° 0 mm 4 mps 722 mmHg 45%
    21:00 +40°C° 0.1 mm 4 mps 722 mmHg 47%
    22:00 +40°C° 0.1 mm 4 mps 722 mmHg 50%
    23:00 +38°C° 0.1 mm 3 mps 722 mmHg 52%

    31 July, Monday

    Time Temperature Precipitation Wind Pressure Humidity
    00:00 +37°C° 0.5 mm 3 mps 722 mmHg 55%
    01:00 +37°C° 0.5 mm 3 mps 721 mmHg 58%
    02:00 +36°C° 0.5 mm 2 mps 721 mmHg 61%
    03:00 +36°C° 0.2 mm 2 mps 721 mmHg 63%
    04:00 +35°C° 0.2 mm 2 mps 721 mmHg 65%
    05:00 +35°C° 0.2 mm 2 mps 721 mmHg 68%
    06:00 +34°C° 0 mm 1 mps 721 mmHg 66%
    07:00 +34°C° 0 mm 1 mps 721 mmHg 64%
    08:00 +35°C° 0 mm 1 mps 721 mmHg 62%
    09:00 +36°C° 0 mm 1 mps 721 mmHg 56%
    10:00 +37°C° 0 mm 1 mps 721 mmHg 50%
    11:00 +40°C° 0 mm 1 mps 721 mmHg 44%
    12:00 +41°C° 0 mm 2 mps 720 mmHg 41%
    13:00 +42°C° 0 mm 2 mps 720 mmHg 37%
    14:00 +43°C° 0 mm 2 mps 720 mmHg 34%
    15:00 +43°C° 0 mm 2 mps 719 mmHg 33%
    16:00 +45°C° 0 mm 3 mps 719 mmHg 32%
    17:00 +45°C° 0 mm 3 mps 719 mmHg 32%
    18:00 +44°C° 0 mm 3 mps 719 mmHg 34%
    19:00 +43°C° 0 mm 3 mps 720 mmHg 37%
    20:00 +42°C° 0 mm 4 mps 720 mmHg 40%
    21:00 +42°C° 0 mm 3 mps 720 mmHg 42%
    22:00 +40°C° 0 mm 3 mps 721 mmHg 44%
    23:00 +39°C° 0 mm 3 mps 721 mmHg 47%

    1 August, Tuesday

    Time Temperature Precipitation Wind Pressure Humidity
    00:00 +39°C° 0.5 mm 3 mps 721 mmHg 49%
    01:00 +38°C° 0.5 mm 3 mps 721 mmHg 52%
    02:00 +38°C° 0.5 mm 3 mps 720 mmHg 55%
    03:00 +37°C° 0.5 mm 2 mps 720 mmHg 57%
    04:00 +37°C° 0.5 mm 2 mps 720 mmHg 59%
    05:00 +36°C° 0.5 mm 2 mps 720 mmHg 61%
    06:00 +36°C° 0.5 mm 2 mps 721 mmHg 60%
    07:00 +37°C° 0.5 mm 2 mps 721 mmHg 58%
    08:00 +37°C° 0.5 mm 2 mps 721 mmHg 57%
    09:00 +38°C° 0 mm 2 mps 721 mmHg 51%
    10:00 +39°C° 0 mm 2 mps 721 mmHg 45%
    11:00 +40°C° 0 mm 2 mps 721 mmHg 39%
    12:00 +41°C° 0 mm 2 mps 720 mmHg 37%
    13:00 +42°C° 0 mm 2 mps 720 mmHg 34%
    14:00 +44°C° 0 mm 3 mps 720 mmHg 32%
    15:00 +44°C° 0 mm 3 mps 720 mmHg 33%
    16:00 +44°C° 0 mm 4 mps 720 mmHg 35%
    17:00 +45°C° 0 mm 5 mps 720 mmHg 36%
    18:00 +43°C° 0.2 mm 5 mps 720 mmHg 40%
    19:00 +42°C° 0.2 mm 5 mps 721 mmHg 44%
    20:00 +41°C° 0.2 mm 5 mps 721 mmHg 48%
    21:00 +40°C° 0.9 mm 5 mps 721 mmHg 51%
    22:00 +38°C° 0.9 mm 4 mps 722 mmHg 55%
    23:00 +37°C° 0.9 mm 4 mps 722 mmHg 58%
    Show more